Location: Unspecified
(0.0000°N, 0.0000°E)
Time: 02:28:33
(UTC+00:00)

STARLINK-1063 - Pass Details

Date: 22 January 2020
Orbit: 546 x 548 km, 53.1° (Epoch: 18 January)

Event Time Altitude Azimuth Distance (km) Brightness Sun altitude
Exits shadow 03:55:48 - 185° (S) 2,483 7.2 -31.6°
Reaches altitude 10° 03:57:57 10° 168° (SSE) 1,814 6.6 -31.1°
Maximum altitude 04:00:47 18° 125° (SE) 1,380 6.3 -30.5°
Drops below altitude 10° 04:03:36 10° 81° (E) 1,806 6.9 -29.9°
Sets 04:06:23 0° 62° (ENE) 2,695 7.7 -29.2°
